Time,TemperatureF,DewpointF,PressureIn,WindDirection,WindDirectionDegrees,WindSpeedMPH,WindSpeedGustMPH,Humidity,HourlyPrecipIn,Conditions,Clouds,dailyrainin,SolarRadiationWatts/m^2,SoftwareType,DateUTC
2013-09-17 00:02:00,72.0,72.0,-100.00,NNW,347,0.0,2.0,100,0.00,,,0.00,65.000000,,2013-09-17 00:02:00,
2013-09-17 00:11:00,72.0,72.0,-100.00,NNW,347,0.0,2.0,100,0.00,,,0.00,65.000000,,2013-09-17 00:11:00,
2013-09-17 00:22:00,72.0,72.0,-100.00,NNW,347,0.0,2.0,100,0.00,,,0.00,65.000000,,2013-09-17 00:22:00,
2013-09-17 00:31:00,68.0,68.0,-100.00,WNW,284,0.0,0.0,100,0.00,,,0.00,11.000000,,2013-09-17 00:31:00,
2013-09-17 00:52:00,68.0,68.0,-100.00,WNW,284,0.0,0.0,100,0.00,,,0.00,11.000000,,2013-09-17 00:52:00,
2013-09-17 01:02:00,68.0,68.0,-100.00,WNW,284,0.0,0.0,100,0.00,,,0.00,11.000000,,2013-09-17 01:02:00,
2013-09-17 01:11:00,68.0,68.0,-100.00,WNW,284,0.0,0.0,100,0.00,,,0.00,11.000000,,2013-09-17 01:11:00,
2013-09-17 01:21:00,68.0,68.0,-100.00,WNW,284,0.0,0.0,100,0.00,,,0.00,11.000000,,2013-09-17 01:21:00,
2013-09-17 01:31:00,66.0,66.0,-100.00,NW,324,0.0,0.0,100,0.00,,,0.00,0.000000,,2013-09-17 01:31:00,
2013-09-17 01:52:00,66.0,66.0,-100.00,NW,324,0.0,0.0,100,0.00,,,0.00,0.000000,,2013-09-17 01:52:00,
2013-09-17 02:03:00,66.0,66.0,-100.00,NW,324,0.0,0.0,100,0.00,,,0.00,0.000000,,2013-09-17 02:03:00,
2013-09-17 02:12:00,66.0,66.0,-100.00,NW,324,0.0,0.0,100,0.00,,,0.00,0.000000,,2013-09-17 02:12:00,
2013-09-17 02:22:00,66.0,66.0,-100.00,NW,324,0.0,0.0,100,0.00,,,0.00,0.000000,,2013-09-17 02:22:00,
2013-09-17 02:31:00,68.0,68.0,-100.00,East,88,2.0,5.0,100,0.00,,,0.00,0.000000,,2013-09-17 02:31:00,
2013-09-17 02:52:00,68.0,68.0,-100.00,East,88,2.0,5.0,100,0.00,,,0.00,0.000000,,2013-09-17 02:52:00,
2013-09-17 03:02:00,68.0,68.0,-100.00,East,88,2.0,5.0,100,0.00,,,0.00,0.000000,,2013-09-17 03:02:00,
2013-09-17 03:12:00,68.0,68.0,-100.00,East,88,2.0,5.0,100,0.00,,,0.00,0.000000,,2013-09-17 03:12:00,
2013-09-17 03:23:00,68.0,68.0,-100.00,East,88,2.0,5.0,100,0.00,,,0.00,0.000000,,2013-09-17 03:23:00,
2013-09-17 03:31:00,67.0,67.0,-100.00,East,79,4.0,12.0,100,0.00,,,-99.99,0.000000,,2013-09-17 03:31:00,
2013-09-17 03:54:00,67.0,67.0,-100.00,East,79,4.0,12.0,100,0.00,,,-99.99,0.000000,,2013-09-17 03:54:00,
2013-09-17 04:05:00,67.0,67.0,-100.00,East,79,4.0,12.0,100,0.00,,,-99.99,0.000000,,2013-09-17 04:05:00,
2013-09-17 04:14:00,67.0,67.0,-100.00,East,79,4.0,12.0,100,0.00,,,-99.99,0.000000,,2013-09-17 04:14:00,
2013-09-17 04:24:00,67.0,67.0,-100.00,East,79,4.0,12.0,100,0.00,,,-99.99,0.000000,,2013-09-17 04:24:00,
2013-09-17 04:31:00,65.0,65.0,-100.00,ENE,72,3.0,5.0,100,0.00,,,0.00,0.000000,,2013-09-17 04:31:00,
2013-09-17 04:54:00,65.0,65.0,-100.00,ENE,72,3.0,5.0,100,0.00,,,0.00,0.000000,,2013-09-17 04:54:00,
2013-09-17 05:04:00,65.0,65.0,-100.00,ENE,72,3.0,5.0,100,0.00,,,0.00,0.000000,,2013-09-17 05:04:00,
2013-09-17 05:12:00,65.0,65.0,-100.00,ENE,72,3.0,5.0,100,0.00,,,0.00,0.000000,,2013-09-17 05:12:00,
2013-09-17 05:23:00,65.0,65.0,-100.00,ENE,72,3.0,5.0,100,0.00,,,0.00,0.000000,,2013-09-17 05:23:00,
2013-09-17 05:31:00,64.0,64.0,-100.00,ENE,72,1.0,5.0,100,0.00,,,0.00,0.000000,,2013-09-17 05:31:00,
2013-09-17 05:52:00,64.0,64.0,-100.00,ENE,72,1.0,5.0,100,0.00,,,0.00,0.000000,,2013-09-17 05:52:00,
2013-09-17 06:02:00,64.0,64.0,-100.00,ENE,72,1.0,5.0,100,0.00,,,0.00,0.000000,,2013-09-17 06:02:00,
2013-09-17 06:12:00,64.0,64.0,-100.00,ENE,72,1.0,5.0,100,0.00,,,0.00,0.000000,,2013-09-17 06:12:00,
2013-09-17 06:22:00,64.0,64.0,-100.00,ENE,72,1.0,5.0,100,0.00,,,0.00,0.000000,,2013-09-17 06:22:00,
2013-09-17 06:31:00,64.0,64.0,-100.00,ENE,77,4.0,7.0,100,0.00,,,0.00,0.000000,,2013-09-17 06:31:00,
2013-09-17 06:52:00,64.0,64.0,-100.00,ENE,77,4.0,7.0,100,0.00,,,0.00,0.000000,,2013-09-17 06:52:00,
2013-09-17 07:02:00,64.0,64.0,-100.00,ENE,77,4.0,7.0,100,0.00,,,0.00,0.000000,,2013-09-17 07:02:00,
2013-09-17 07:11:00,64.0,64.0,-100.00,ENE,77,4.0,7.0,100,0.00,,,0.00,0.000000,,2013-09-17 07:11:00,
2013-09-17 07:23:00,64.0,64.0,-100.00,ENE,77,4.0,7.0,100,0.00,,,0.00,0.000000,,2013-09-17 07:23:00,
2013-09-17 07:31:00,64.0,64.0,-100.00,East,84,3.0,8.0,100,0.00,,,0.00,0.000000,,2013-09-17 07:31:00,
2013-09-17 07:52:00,64.0,64.0,-100.00,East,84,3.0,8.0,100,0.00,,,0.00,0.000000,,2013-09-17 07:52:00,
2013-09-17 08:02:00,64.0,64.0,-100.00,East,84,3.0,8.0,100,0.00,,,0.00,0.000000,,2013-09-17 08:02:00,
2013-09-17 08:12:00,64.0,64.0,-100.00,East,84,3.0,8.0,100,0.00,,,0.00,0.000000,,2013-09-17 08:12:00,
2013-09-17 08:22:00,64.0,64.0,-100.00,East,84,3.0,8.0,100,0.00,,,0.00,0.000000,,2013-09-17 08:22:00,
2013-09-17 08:31:00,63.0,63.0,-100.00,East,82,3.0,8.0,100,0.00,,,0.00,0.000000,,2013-09-17 08:31:00,
2013-09-17 08:52:00,63.0,63.0,-100.00,East,82,3.0,8.0,100,0.00,,,0.00,0.000000,,2013-09-17 08:52:00,
2013-09-17 09:02:00,63.0,63.0,-100.00,East,82,3.0,8.0,100,0.00,,,0.00,0.000000,,2013-09-17 09:02:00,
2013-09-17 09:12:00,63.0,63.0,-100.00,East,82,3.0,8.0,100,0.00,,,0.00,0.000000,,2013-09-17 09:12:00,
2013-09-17 09:22:00,63.0,63.0,-100.00,East,82,3.0,8.0,100,0.00,,,0.00,0.000000,,2013-09-17 09:22:00,
2013-09-17 09:31:00,63.0,63.0,-100.00,ENE,78,3.0,7.0,100,0.00,,,0.00,0.000000,,2013-09-17 09:31:00,
2013-09-17 09:53:00,63.0,63.0,-100.00,ENE,78,3.0,7.0,100,0.00,,,0.00,0.000000,,2013-09-17 09:53:00,
2013-09-17 10:03:00,63.0,63.0,-100.00,ENE,78,3.0,7.0,100,0.00,,,0.00,0.000000,,2013-09-17 10:03:00,
2013-09-17 10:12:00,63.0,63.0,-100.00,ENE,78,3.0,7.0,100,0.00,,,0.00,0.000000,,2013-09-17 10:12:00,
2013-09-17 10:23:00,63.0,63.0,-100.00,ENE,78,3.0,7.0,100,0.00,,,0.00,0.000000,,2013-09-17 10:23:00,
2013-09-17 10:31:00,63.0,63.0,-100.00,ENE,67,2.0,5.0,100,0.00,,,0.00,0.000000,,2013-09-17 10:31:00,
2013-09-17 10:53:00,63.0,63.0,-100.00,ENE,67,2.0,5.0,100,0.00,,,0.00,0.000000,,2013-09-17 10:53:00,
2013-09-17 11:03:00,63.0,63.0,-100.00,ENE,67,2.0,5.0,100,0.00,,,0.00,0.000000,,2013-09-17 11:03:00,
2013-09-17 11:11:00,63.0,63.0,-100.00,ENE,67,2.0,5.0,100,0.00,,,0.00,0.000000,,2013-09-17 11:11:00,
2013-09-17 11:22:00,63.0,63.0,-100.00,ENE,67,2.0,5.0,100,0.00,,,0.00,0.000000,,2013-09-17 11:22:00,
2013-09-17 11:31:00,62.0,62.0,-100.00,ENE,72,3.0,7.0,100,0.00,,,0.00,0.000000,,2013-09-17 11:31:00,
2013-09-17 11:52:00,62.0,62.0,-100.00,ENE,72,3.0,7.0,100,0.00,,,0.00,0.000000,,2013-09-17 11:52:00,
2013-09-17 12:02:00,62.0,62.0,-100.00,ENE,72,3.0,7.0,100,0.00,,,0.00,0.000000,,2013-09-17 12:02:00,
2013-09-17 12:12:00,62.0,62.0,-100.00,ENE,72,3.0,7.0,100,0.00,,,0.00,0.000000,,2013-09-17 12:12:00,
2013-09-17 12:22:00,62.0,62.0,-100.00,ENE,72,3.0,7.0,100,0.00,,,0.00,0.000000,,2013-09-17 12:22:00,
2013-09-17 12:31:00,62.0,62.0,-100.00,East,80,3.0,8.0,100,0.00,,,0.00,23.000000,,2013-09-17 12:31:00,
2013-09-17 12:52:00,62.0,62.0,-100.00,East,80,3.0,8.0,100,0.00,,,0.00,23.000000,,2013-09-17 12:52:00,
2013-09-17 13:02:00,62.0,62.0,-100.00,East,80,3.0,8.0,100,0.00,,,0.00,23.000000,,2013-09-17 13:02:00,
2013-09-17 13:11:00,62.0,62.0,-100.00,East,80,3.0,8.0,100,0.00,,,0.00,23.000000,,2013-09-17 13:11:00,
2013-09-17 13:22:00,62.0,62.0,-100.00,East,80,3.0,8.0,100,0.00,,,0.00,23.000000,,2013-09-17 13:22:00,
2013-09-17 13:31:00,64.0,64.0,-100.00,East,84,3.0,9.0,100,0.00,,,0.00,116.000000,,2013-09-17 13:31:00,
2013-09-17 13:52:00,64.0,64.0,-100.00,East,84,3.0,9.0,100,0.00,,,0.00,116.000000,,2013-09-17 13:52:00,
2013-09-17 14:02:00,64.0,64.0,-100.00,East,84,3.0,9.0,100,0.00,,,0.00,116.000000,,2013-09-17 14:02:00,
2013-09-17 14:11:00,64.0,64.0,-100.00,East,84,3.0,9.0,100,0.00,,,0.00,116.000000,,2013-09-17 14:11:00,
2013-09-17 14:22:00,64.0,64.0,-100.00,East,84,3.0,9.0,100,0.00,,,0.00,116.000000,,2013-09-17 14:22:00,
2013-09-17 14:31:00,67.0,67.0,-100.00,ESE,102,6.0,11.0,100,0.00,,,0.00,344.000000,,2013-09-17 14:31:00,
2013-09-17 14:52:00,67.0,67.0,-100.00,ESE,102,6.0,11.0,100,0.00,,,0.00,344.000000,,2013-09-17 14:52:00,
2013-09-17 15:02:00,67.0,67.0,-100.00,ESE,102,6.0,11.0,100,0.00,,,0.00,344.000000,,2013-09-17 15:02:00,
2013-09-17 15:11:00,67.0,67.0,-100.00,ESE,102,6.0,11.0,100,0.00,,,0.00,344.000000,,2013-09-17 15:11:00,
2013-09-17 15:22:00,67.0,67.0,-100.00,ESE,102,6.0,11.0,100,0.00,,,0.00,344.000000,,2013-09-17 15:22:00,
2013-09-17 15:31:00,72.0,70.0,-100.00,East,92,5.0,10.0,93,0.00,,,0.00,541.000000,,2013-09-17 15:31:00,
2013-09-17 15:53:00,72.0,70.0,-100.00,East,92,5.0,10.0,93,0.00,,,0.00,541.000000,,2013-09-17 15:53:00,
2013-09-17 16:03:00,72.0,70.0,-100.00,East,92,5.0,10.0,93,0.00,,,0.00,541.000000,,2013-09-17 16:03:00,
2013-09-17 16:13:00,72.0,70.0,-100.00,East,92,5.0,10.0,93,0.00,,,0.00,541.000000,,2013-09-17 16:13:00,
2013-09-17 16:23:00,72.0,70.0,-100.00,East,92,5.0,10.0,93,0.00,,,0.00,541.000000,,2013-09-17 16:23:00,
2013-09-17 16:31:00,76.0,69.0,-100.00,ESE,120,4.0,7.0,80,0.00,,,0.00,675.000000,,2013-09-17 16:31:00,
2013-09-17 16:54:00,76.0,69.0,-100.00,ESE,120,4.0,7.0,80,0.00,,,0.00,675.000000,,2013-09-17 16:54:00,
2013-09-17 17:03:00,76.0,69.0,-100.00,ESE,120,4.0,7.0,80,0.00,,,0.00,675.000000,,2013-09-17 17:03:00,
2013-09-17 17:12:00,76.0,69.0,-100.00,ESE,120,4.0,7.0,80,0.00,,,0.00,675.000000,,2013-09-17 17:12:00,
2013-09-17 17:23:00,76.0,69.0,-100.00,ESE,120,4.0,7.0,80,0.00,,,0.00,675.000000,,2013-09-17 17:23:00,
2013-09-17 17:31:00,78.0,69.0,-100.00,ESE,108,5.0,8.0,75,0.00,,,0.00,702.000000,,2013-09-17 17:31:00,
2013-09-17 17:53:00,78.0,69.0,-100.00,ESE,108,5.0,8.0,75,0.00,,,0.00,702.000000,,2013-09-17 17:53:00,
2013-09-17 18:02:00,78.0,69.0,-100.00,ESE,108,5.0,8.0,75,0.00,,,0.00,702.000000,,2013-09-17 18:02:00,
2013-09-17 18:12:00,78.0,69.0,-100.00,ESE,108,5.0,8.0,75,0.00,,,0.00,702.000000,,2013-09-17 18:12:00,
2013-09-17 18:22:00,78.0,69.0,-100.00,ESE,108,5.0,8.0,75,0.00,,,0.00,702.000000,,2013-09-17 18:22:00,
2013-09-17 18:31:00,81.0,68.0,-100.00,East,93,4.0,8.0,64,0.00,,,0.00,790.000000,,2013-09-17 18:31:00,
2013-09-17 18:52:00,81.0,68.0,-100.00,East,93,4.0,8.0,64,0.00,,,0.00,790.000000,,2013-09-17 18:52:00,
2013-09-17 19:02:00,81.0,68.0,-100.00,East,93,4.0,8.0,64,0.00,,,0.00,790.000000,,2013-09-17 19:02:00,
2013-09-17 19:12:00,81.0,68.0,-100.00,East,93,4.0,8.0,64,0.00,,,0.00,790.000000,,2013-09-17 19:12:00,
2013-09-17 19:22:00,81.0,68.0,-100.00,East,93,4.0,8.0,64,0.00,,,0.00,790.000000,,2013-09-17 19:22:00,
2013-09-17 19:31:00,81.0,65.0,-100.00,ESE,111,4.0,8.0,59,0.00,,,0.00,738.000000,,2013-09-17 19:31:00,
2013-09-17 19:52:00,81.0,65.0,-100.00,ESE,111,4.0,8.0,59,0.00,,,0.00,738.000000,,2013-09-17 19:52:00,
2013-09-17 20:02:00,81.0,65.0,-100.00,ESE,111,4.0,8.0,59,0.00,,,0.00,738.000000,,2013-09-17 20:02:00,
2013-09-17 20:11:00,81.0,65.0,-100.00,ESE,111,4.0,8.0,59,0.00,,,0.00,738.000000,,2013-09-17 20:11:00,
2013-09-17 20:22:00,81.0,65.0,-100.00,ESE,111,4.0,8.0,59,0.00,,,0.00,738.000000,,2013-09-17 20:22:00,
2013-09-17 20:31:00,82.0,66.0,-100.00,ENE,78,2.0,8.0,59,0.00,,,0.00,420.000000,,2013-09-17 20:31:00,
2013-09-17 20:52:00,82.0,66.0,-100.00,ENE,78,2.0,8.0,59,0.00,,,0.00,420.000000,,2013-09-17 20:52:00,
2013-09-17 21:02:00,82.0,66.0,-100.00,ENE,78,2.0,8.0,59,0.00,,,0.00,420.000000,,2013-09-17 21:02:00,
2013-09-17 21:12:00,82.0,66.0,-100.00,ENE,78,2.0,8.0,59,0.00,,,0.00,420.000000,,2013-09-17 21:12:00,
2013-09-17 21:22:00,82.0,66.0,-100.00,ENE,78,2.0,8.0,59,0.00,,,0.00,420.000000,,2013-09-17 21:22:00,
2013-09-17 21:31:00,82.0,66.0,-100.00,East,97,2.0,5.0,58,0.00,,,0.00,293.000000,,2013-09-17 21:31:00,
2013-09-17 21:54:00,82.0,66.0,-100.00,East,97,2.0,5.0,58,0.00,,,0.00,293.000000,,2013-09-17 21:54:00,
2013-09-17 22:04:00,82.0,66.0,-100.00,East,97,2.0,5.0,58,0.00,,,0.00,293.000000,,2013-09-17 22:04:00,
2013-09-17 22:13:00,82.0,66.0,-100.00,East,97,2.0,5.0,58,0.00,,,0.00,293.000000,,2013-09-17 22:13:00,
2013-09-17 22:24:00,82.0,66.0,-100.00,East,97,2.0,5.0,58,0.00,,,0.00,293.000000,,2013-09-17 22:24:00,
2013-09-17 22:31:00,82.0,68.0,-100.00,NNE,23,0.0,4.0,62,0.00,,,0.00,198.000000,,2013-09-17 22:31:00,
2013-09-17 22:53:00,82.0,68.0,-100.00,NNE,23,0.0,4.0,62,0.00,,,0.00,198.000000,,2013-09-17 22:53:00,
2013-09-17 23:03:00,82.0,68.0,-100.00,NNE,23,0.0,4.0,62,0.00,,,0.00,198.000000,,2013-09-17 23:03:00,
2013-09-17 23:12:00,82.0,68.0,-100.00,NNE,23,0.0,4.0,62,0.00,,,0.00,198.000000,,2013-09-17 23:12:00,
2013-09-17 23:22:00,82.0,68.0,-100.00,NNE,23,0.0,4.0,62,0.00,,,0.00,198.000000,,2013-09-17 23:22:00,
2013-09-17 23:31:00,76.0,69.0,-100.00,NNW,336,0.0,0.0,78,0.00,,,0.00,87.000000,,2013-09-17 23:31:00,
2013-09-17 23:52:00,76.0,69.0,-100.00,NNW,336,0.0,0.0,78,0.00,,,0.00,87.000000,,2013-09-17 23:52:00,